TimeCST,TemperatureF,Dew PointF,Humidity,Sea Level PressureIn,VisibilityMPH,Wind Direction,Wind SpeedMPH,Gust SpeedMPH,PrecipitationIn,Events,Conditions,WindDirDegrees,DateUTC
12:15 AM,59.0,50.0,72,30.14,10.0,SSE,11.5,-,N/A,,Scattered Clouds,150,2013-02-18 06:15:00
12:55 AM,57.2,51.8,82,30.13,10.0,SSE,11.5,-,N/A,,Scattered Clouds,150,2013-02-18 06:55:00
1:15 AM,59.0,51.8,77,30.12,10.0,SSE,12.7,-,N/A,,Scattered Clouds,150,2013-02-18 07:15:00
1:35 AM,59.0,51.8,77,30.11,10.0,SSE,11.5,-,N/A,,Scattered Clouds,150,2013-02-18 07:35:00
1:55 AM,59.0,51.8,77,30.11,10.0,SSE,13.8,17.3,N/A,,Mostly Cloudy,150,2013-02-18 07:55:00
2:15 AM,59.0,51.8,77,30.10,10.0,SSE,13.8,17.3,N/A,,Mostly Cloudy,150,2013-02-18 08:15:00
2:35 AM,59.0,51.8,77,30.09,10.0,SSE,10.4,-,N/A,,Mostly Cloudy,150,2013-02-18 08:35:00
2:55 AM,59.0,51.8,77,30.08,10.0,SSE,10.4,-,N/A,,Mostly Cloudy,150,2013-02-18 08:55:00
3:15 AM,60.8,51.8,72,30.08,10.0,SSE,11.5,-,N/A,,Overcast,150,2013-02-18 09:15:00
3:35 AM,60.8,53.6,77,30.07,10.0,SSE,12.7,-,N/A,,Overcast,150,2013-02-18 09:35:00
3:55 AM,60.8,53.6,77,30.06,10.0,SSE,10.4,18.4,N/A,,Overcast,150,2013-02-18 09:55:00
4:15 AM,60.8,53.6,77,30.06,10.0,SSE,12.7,-,N/A,,Overcast,150,2013-02-18 10:15:00
4:35 AM,60.8,53.6,77,30.06,10.0,SSE,11.5,-,N/A,,Overcast,150,2013-02-18 10:35:00
5:15 AM,60.8,53.6,77,30.06,10.0,SSE,9.2,-,N/A,,Overcast,150,2013-02-18 11:15:00
5:35 AM,60.8,53.6,77,30.06,10.0,SSE,10.4,-,N/A,,Overcast,150,2013-02-18 11:35:00
5:55 AM,60.8,55.4,82,30.06,10.0,SE,11.5,-,N/A,,Overcast,140,2013-02-18 11:55:00
6:15 AM,60.8,55.4,82,30.05,10.0,SSE,13.8,-,N/A,,Overcast,150,2013-02-18 12:15:00
6:35 AM,60.8,55.4,82,30.04,10.0,SSE,12.7,18.4,N/A,,Overcast,150,2013-02-18 12:35:00
6:55 AM,60.8,55.4,82,30.04,10.0,SE,12.7,-,N/A,,Overcast,140,2013-02-18 12:55:00
7:15 AM,60.8,55.4,82,30.03,10.0,SE,12.7,-,N/A,,Overcast,140,2013-02-18 13:15:00
7:35 AM,62.6,55.4,77,30.04,10.0,SE,12.7,18.4,N/A,,Overcast,140,2013-02-18 13:35:00
7:55 AM,62.6,55.4,77,30.05,10.0,SSE,15.0,-,N/A,,Overcast,150,2013-02-18 13:55:00
8:15 AM,62.6,55.4,77,30.05,10.0,SSE,12.7,19.6,N/A,,Overcast,150,2013-02-18 14:15:00
8:35 AM,64.4,55.4,73,30.06,10.0,SSE,12.7,-,N/A,,Overcast,150,2013-02-18 14:35:00
8:55 AM,64.4,55.4,73,30.06,10.0,SE,13.8,-,N/A,,Overcast,140,2013-02-18 14:55:00
9:15 AM,64.4,57.2,77,30.06,10.0,SSE,12.7,-,N/A,,Overcast,150,2013-02-18 15:15:00
9:35 AM,64.4,57.2,77,30.06,10.0,SSE,16.1,23.0,N/A,,Overcast,150,2013-02-18 15:35:00
9:55 AM,66.2,59.0,78,30.05,10.0,SSE,18.4,23.0,N/A,,Overcast,150,2013-02-18 15:55:00
10:15 AM,68.0,59.0,73,30.05,10.0,SSE,19.6,29.9,N/A,,Overcast,150,2013-02-18 16:15:00
10:35 AM,68.0,59.0,73,30.05,10.0,SSE,21.9,27.6,N/A,,Overcast,150,2013-02-18 16:35:00
10:55 AM,68.0,59.0,73,30.05,10.0,SSE,23.0,33.4,N/A,,Overcast,150,2013-02-18 16:55:00
11:15 AM,68.0,59.0,73,30.04,10.0,SSE,23.0,31.1,N/A,,Overcast,160,2013-02-18 17:15:00
11:35 AM,68.0,59.0,73,30.04,10.0,SSE,25.3,31.1,N/A,,Overcast,150,2013-02-18 17:35:00
11:55 AM,68.0,60.8,78,30.04,10.0,SSE,21.9,27.6,N/A,,Overcast,160,2013-02-18 17:55:00
12:15 PM,68.0,59.0,73,30.03,10.0,SSE,20.7,28.8,N/A,,Overcast,160,2013-02-18 18:15:00
12:35 PM,68.0,60.8,78,30.01,10.0,SSE,19.6,27.6,N/A,,Overcast,150,2013-02-18 18:35:00
12:55 PM,68.0,60.8,78,30.00,10.0,SSE,18.4,25.3,N/A,,Overcast,150,2013-02-18 18:55:00
1:15 PM,69.8,60.8,73,29.98,10.0,SSE,15.0,25.3,N/A,,Overcast,150,2013-02-18 19:15:00
1:35 PM,68.0,60.8,78,29.97,10.0,SSE,19.6,26.5,N/A,,Overcast,160,2013-02-18 19:35:00
2:15 PM,69.8,62.6,78,29.94,10.0,SSE,20.7,28.8,N/A,,Mostly Cloudy,150,2013-02-18 20:15:00
2:35 PM,68.0,62.6,83,29.94,10.0,SSE,17.3,29.9,N/A,,Overcast,160,2013-02-18 20:35:00
2:55 PM,68.0,62.6,83,29.94,10.0,SSE,17.3,26.5,N/A,Rain,Light Rain,160,2013-02-18 20:55:00
3:15 PM,68.0,64.4,88,29.93,7.0,SSE,18.4,24.2,0.04,Rain,Light Rain,150,2013-02-18 21:15:00
3:35 PM,66.2,64.4,94,29.93,7.0,SSE,20.7,25.3,0.04,,Overcast,150,2013-02-18 21:35:00
3:55 PM,68.0,62.6,83,29.92,10.0,SSE,18.4,21.9,0.04,,Overcast,150,2013-02-18 21:55:00
4:15 PM,68.0,64.4,88,29.91,10.0,SSE,17.3,24.2,N/A,Rain,Light Rain,160,2013-02-18 22:15:00
4:35 PM,68.0,62.6,83,29.91,10.0,SSE,18.4,26.5,N/A,,Mostly Cloudy,160,2013-02-18 22:35:00
5:15 PM,68.0,62.6,83,29.91,10.0,South,17.3,23.0,N/A,,Overcast,170,2013-02-18 23:15:00
5:35 PM,66.2,62.6,88,29.92,7.0,South,12.7,-,0.01,Rain,Light Rain,170,2013-02-18 23:35:00
5:55 PM,66.2,62.6,88,29.91,10.0,South,13.8,-,0.01,,Overcast,170,2013-02-18 23:55:00
6:15 PM,66.2,62.6,88,29.91,7.0,South,12.7,-,N/A,Rain-Thunderstorm,Thunderstorms and Rain,170,2013-02-19 00:15:00
6:55 PM,66.2,64.4,94,29.91,10.0,South,13.8,19.6,0.01,,Overcast,180,2013-02-19 00:55:00
7:15 PM,66.2,64.4,94,29.91,10.0,South,13.8,21.9,N/A,,Overcast,180,2013-02-19 01:15:00
7:35 PM,66.2,64.4,94,29.92,7.0,South,15.0,21.9,N/A,Rain,Rain,180,2013-02-19 01:35:00
8:15 PM,64.4,64.4,100,29.95,5.0,WSW,11.5,-,0.08,Rain,Light Rain,250,2013-02-19 02:15:00
8:35 PM,64.4,64.4,100,29.94,5.0,SSW,11.5,23.0,0.14,Rain,Rain,210,2013-02-19 02:35:00
8:55 PM,64.4,64.4,100,29.95,7.0,SW,6.9,-,0.48,Rain,Rain,230,2013-02-19 02:55:00
9:15 PM,66.2,64.4,94,29.96,7.0,SW,16.1,23.0,0.09,Rain,Rain,230,2013-02-19 03:15:00
9:35 PM,66.2,62.6,88,29.97,10.0,SSW,21.9,28.8,0.10,,Overcast,210,2013-02-19 03:35:00
9:55 PM,64.4,62.6,94,29.97,10.0,SSW,9.2,23.0,0.10,,Overcast,210,2013-02-19 03:55:00
10:15 PM,64.4,62.6,94,29.98,10.0,SW,8.1,-,N/A,,Scattered Clouds,220,2013-02-19 04:15:00
10:35 PM,66.2,64.4,94,29.98,10.0,SW,11.5,-,N/A,,Mostly Cloudy,230,2013-02-19 04:35:00
10:55 PM,66.2,64.4,94,29.98,10.0,SW,11.5,-,N/A,,Overcast,230,2013-02-19 04:55:00
11:15 PM,66.2,64.4,94,29.99,7.0,SW,11.5,-,N/A,Thunderstorm,Overcast,230,2013-02-19 05:15:00
11:35 PM,64.4,60.8,88,30.02,7.0,NW,20.7,29.9,N/A,Rain-Thunderstorm,Light Thunderstorms and Rain,310,2013-02-19 05:35:00
11:55 PM,57.2,55.4,94,30.04,4.0,NW,12.7,-,0.15,Rain-Thunderstorm,Heavy Thunderstorms and Rain,310,2013-02-19 05:55:00